| time (UTC) | temp F | wind direction | speed MPH | gust MPH | rain 1hr in | rain 24hr in | rain mn in | humidity % | barometer mb |
| 20260507130021 | 78 | 236 | 5.0 | 10.0 | 0.00 | 0.00 | 0.00 | 33 | 1019.2 |
| 20260507125017 | 79 | 227 | 5.0 | 10.0 | 0.00 | 0.00 | 0.00 | 33 | 1019.3 |
| 20260507124026 | 79 | 189 | 4.0 | 9.0 | 0.00 | 0.00 | 0.00 | 31 | 1019.3 |
| 20260507123019 | 79 | 185 | 4.0 | 8.0 | 0.00 | 0.00 | 0.00 | 29 | 1019.3 |
| 20260507122017 | 79 | 164 | 4.0 | 9.0 | 0.00 | 0.00 | 0.00 | 30 | 1019.3 |
| 20260507121025 | 78 | 161 | 4.0 | 8.0 | 0.00 | 0.00 | 0.00 | 34 | 1019.3 |
| 20260507120020 | 77 | 157 | 2.0 | 7.0 | 0.00 | 0.00 | 0.00 | 38 | 1019.4 |
| 20260507115045 | 78 | 116 | 3.0 | 6.0 | 0.00 | 0.00 | 0.00 | 34 | 1019.4 |
| 20260507114042 | 78 | 140 | 3.0 | 6.0 | 0.00 | 0.00 | 0.00 | 35 | 1019.4 |
| 20260507113024 | 78 | 171 | 4.0 | 8.0 | 0.00 | 0.00 | 0.00 | 31 | 1019.4 |
| 20260507112019 | 78 | 159 | 5.0 | 10.0 | 0.00 | 0.00 | 0.00 | 31 | 1019.4 |
| 20260507111018 | 77 | 164 | 5.0 | 9.0 | 0.00 | 0.00 | 0.00 | 32 | 1019.4 |
| 20260507110017 | 78 | 170 | 5.0 | 9.0 | 0.00 | 0.00 | 0.00 | 33 | 1019.5 |
| 20260507105023 | 76 | 163 | 4.0 | 9.0 | 0.00 | 0.00 | 0.00 | 36 | 1019.7 |
| 20260507104021 | 75 | 139 | 3.0 | 6.0 | 0.00 | 0.00 | 0.00 | 42 | 1019.7 |
| 20260507103017 | 73 | 131 | 3.0 | 9.0 | 0.00 | 0.00 | 0.00 | 43 | 1019.6 |
| 20260507102022 | 72 | 148 | 5.0 | 10.0 | 0.00 | 0.00 | 0.00 | 44 | 1019.6 |
| 20260507101018 | 72 | 142 | 6.0 | 11.0 | 0.00 | 0.00 | 0.00 | 45 | 1019.7 |
| 20260507100017 | 72 | 140 | 5.0 | 11.0 | 0.00 | 0.00 | 0.00 | 44 | 1019.8 |
| 20260507095023 | 71 | 131 | 5.0 | 9.0 | 0.00 | 0.00 | 0.00 | 44 | 1019.8 |
| 20260507094026 | 71 | 148 | 6.0 | 13.0 | 0.00 | 0.00 | 0.00 | 44 | 1019.8 |
| 20260507093021 | 70 | 142 | 5.0 | 10.0 | 0.00 | 0.00 | 0.00 | 45 | 1019.9 |
| 20260507092019 | 71 | 144 | 5.0 | 10.0 | 0.00 | 0.00 | 0.00 | 45 | 1019.8 |
| 20260507091017 | 70 | 147 | 6.0 | 15.0 | 0.00 | 0.00 | 0.00 | 46 | 1019.8 |
| 20260507090018 | 70 | 159 | 5.0 | 11.0 | 0.00 | 0.00 | 0.00 | 46 | 1020.0 |
| 20260507085124 | 69 | 152 | 5.0 | 13.0 | 0.00 | 0.00 | 0.00 | 47 | 1020.1 |
| 20260507084019 | 69 | 153 | 6.0 | 11.0 | 0.00 | 0.00 | 0.00 | 49 | 1020.1 |
| 20260507083024 | 68 | 147 | 6.0 | 11.0 | 0.00 | 0.00 | 0.00 | 50 | 1020.1 |
| 20260507082044 | 68 | 152 | 7.0 | 15.0 | 0.00 | 0.00 | 0.00 | 48 | 1020.1 |
| 20260507081022 | 68 | 148 | 6.0 | 11.0 | 0.00 | 0.00 | 0.00 | 49 | 1020.0 |
| 20260507080021 | 68 | 146 | 6.0 | 11.0 | 0.00 | 0.00 | 0.00 | 49 | 1020.0 |
| 20260507075018 | 68 | 144 | 7.0 | 13.0 | 0.00 | 0.00 | 0.00 | 51 | 1020.0 |
| 20260507074016 | 68 | 145 | 5.0 | 9.0 | 0.00 | 0.00 | 0.00 | 50 | 1020.1 |
| 20260507073021 | 68 | 144 | 5.0 | 10.0 | 0.00 | 0.00 | 0.00 | 50 | 1020.1 |
| 20260507072018 | 68 | 139 | 4.0 | 11.0 | 0.00 | 0.00 | 0.00 | 47 | 1020.1 |
| 20260507071018 | 69 | 132 | 3.0 | 9.0 | 0.00 | 0.00 | 0.00 | 50 | 1020.2 |
| 20260507070016 | 68 | 137 | 3.0 | 10.0 | 0.00 | 0.00 | 0.00 | 51 | 1020.1 |
| 20260507065036 | 68 | 150 | 4.0 | 10.0 | 0.00 | 0.00 | 0.00 | 51 | 1020.1 |
| 20260507064024 | 68 | 162 | 2.0 | 6.0 | 0.00 | 0.00 | 0.00 | 50 | 1020.1 |
| 20260507063023 | 67 | 165 | 1.0 | 2.0 | 0.00 | 0.00 | 0.00 | 55 | 1020.2 |
| 20260507062019 | 66 | 136 | 1.0 | 4.0 | 0.00 | 0.00 | 0.00 | 61 | 1020.3 |
| 20260507061025 | 64 | 147 | 1.0 | 2.0 | 0.00 | 0.00 | 0.00 | 64 | 1020.2 |
| 20260507060020 | 63 | 276 | 1.0 | 2.0 | 0.00 | 0.00 | 0.00 | 70 | 1020.2 |
| 20260507055016 | 63 | 20 | 1.0 | 3.0 | 0.00 | 0.00 | 0.00 | 71 | 1020.2 |
| 20260507054022 | 63 | 21 | 2.0 | 2.0 | 0.00 | 0.00 | 0.00 | 69 | 1020.0 |
| 20260507053058 | 63 | 0.0 | 0.0 | 0.00 | 0.00 | 0.00 | 70 | 1020.0 | |
| 20260507052023 | 62 | 0.0 | 0.0 | 0.00 | 0.00 | 0.00 | 71 | 1019.9 | |
| 20260507051021 | 62 | 0.0 | 0.0 | 0.00 | 0.00 | 0.00 | 70 | 1019.9 | |
| 20260507050020 | 63 | 0.0 | 0.0 | 0.00 | 0.00 | 0.00 | 70 | 1019.7 | |
| 20260507045059 | 62 | 0.0 | 0.0 | 0.00 | 0.00 | 0.00 | 72 | 1019.7 | |
| 20260507044020 | 61 | 58 | 1.0 | 1.0 | 0.00 | 0.00 | 0.00 | 73 | 1019.5 |
| 20260507043017 | 60 | 58 | 0.0 | 2.0 | 0.00 | 0.00 | 0.00 | 74 | 1019.5 |
| 20260507042017 | 59 | 58 | 0.0 | 1.0 | 0.00 | 0.00 | 0.00 | 76 | 1019.5 |
| 20260507041025 | 58 | 63 | 1.0 | 1.0 | 0.00 | 0.00 | 0.00 | 77 | 1019.3 |
| 20260507040041 | 58 | 109 | 0.0 | 2.0 | 0.00 | 0.00 | 0.00 | 77 | 1019.1 |
| 20260507035019 | 57 | 150 | 0.0 | 1.0 | 0.00 | 0.00 | 0.00 | 76 | 1018.9 |
| 20260507034025 | 57 | 0.0 | 0.0 | 0.00 | 0.00 | 0.00 | 75 | 1018.8 | |
| 20260507033026 | 57 | 0.0 | 0.0 | 0.00 | 0.00 | 0.00 | 74 | 1018.7 | |
| 20260507032024 | 58 | 0.0 | 0.0 | 0.00 | 0.00 | 0.00 | 73 | 1018.6 | |
| 20260507031022 | 58 | 0.0 | 0.0 | 0.00 | 0.00 | 0.00 | 72 | 1018.4 | |
| 20260507030101 | 58 | 0.0 | 0.0 | 0.00 | 0.00 | 0.00 | 72 | 1018.3 | |
| 20260507025018 | 58 | 0.0 | 0.0 | 0.00 | 0.00 | 0.00 | 72 | 1018.3 | |
| 20260507024024 | 58 | 153 | 0.0 | 1.0 | 0.00 | 0.00 | 0.00 | 72 | 1018.4 |
| 20260507023104 | 58 | 151 | 0.0 | 1.0 | 0.00 | 0.00 | 0.00 | 71 | 1018.2 |
| 20260507022023 | 58 | 0.0 | 0.0 | 0.00 | 0.00 | 0.00 | 71 | 1018.2 | |
| 20260507021017 | 59 | 136 | 1.0 | 1.0 | 0.00 | 0.00 | 0.00 | 71 | 1018.2 |
| 20260507020025 | 59 | 122 | 0.0 | 1.0 | 0.00 | 0.00 | 0.00 | 71 | 1018.2 |
| 20260507015021 | 59 | 65 | 0.0 | 1.0 | 0.00 | 0.00 | 0.00 | 71 | 1017.9 |
| 20260507014018 | 59 | 61 | 0.0 | 1.0 | 0.00 | 0.00 | 0.00 | 70 | 1018.0 |
| 20260507013025 | 59 | 61 | 1.0 | 1.0 | 0.00 | 0.00 | 0.00 | 70 | 1017.9 |
| 20260507012022 | 59 | 60 | 0.0 | 2.0 | 0.00 | 0.00 | 0.00 | 69 | 1017.9 |
| 20260507011018 | 59 | 60 | 0.0 | 1.0 | 0.00 | 0.00 | 0.00 | 68 | 1017.9 |
| 20260507010018 | 59 | 0.0 | 0.0 | 0.00 | 0.00 | 0.00 | 68 | 1017.9 | |
| 20260507005106 | 59 | 60 | 0.0 | 1.0 | 0.00 | 0.00 | 0.00 | 66 | 1018.1 |
| 20260507004026 | 59 | 0.0 | 0.0 | 0.00 | 0.00 | 0.00 | 66 | 1018.0 | |
| 20260507003023 | 59 | 60 | 1.0 | 1.0 | 0.00 | 0.00 | 0.00 | 66 | 1018.2 |
| 20260507002019 | 60 | 61 | 1.0 | 1.0 | 0.00 | 0.00 | 0.00 | 65 | 1018.1 |
| 20260507001024 | 60 | 66 | 1.0 | 2.0 | 0.00 | 0.00 | 0.00 | 64 | 1018.1 |
| 20260507000020 | 59 | 93 | 1.0 | 2.0 | 0.00 | 0.00 | 0.00 | 62 | 1018.1 |
| 20260506235101 | 60 | 0.0 | 0.0 | 0.00 | 0.00 | 0.00 | 61 | 1018.1 | |
| 20260506234024 | 60 | 149 | 0.0 | 2.0 | 0.00 | 0.00 | 0.00 | 62 | 1018.1 |
| 20260506233021 | 60 | 0.0 | 0.0 | 0.00 | 0.00 | 0.00 | 61 | 1018.1 | |
| 20260506232018 | 60 | 149 | 0.0 | 1.0 | 0.00 | 0.00 | 0.00 | 61 | 1018.2 |
| 20260506231016 | 60 | 149 | 0.0 | 1.0 | 0.00 | 0.00 | 0.00 | 62 | 1018.3 |
| 20260506230025 | 60 | 149 | 1.0 | 2.0 | 0.00 | 0.00 | 0.00 | 64 | 1018.2 |
| 20260506224024 | 60 | 153 | 0.0 | 1.0 | 0.00 | 0.00 | 0.00 | 63 | 1018.5 |
| 20260506223025 | 61 | 0.0 | 0.0 | 0.00 | 0.00 | 0.00 | 61 | 1018.6 | |
| 20260506222023 | 61 | 0.0 | 0.0 | 0.00 | 0.00 | 0.00 | 60 | 1018.6 | |
| 20260506221024 | 61 | 153 | 1.0 | 1.0 | 0.00 | 0.00 | 0.00 | 59 | 1018.6 |
| 20260506220021 | 60 | 0.0 | 0.0 | 0.00 | 0.00 | 0.00 | 59 | 1018.7 | |
| 20260506215020 | 61 | 0.0 | 0.0 | 0.00 | 0.00 | 0.00 | 57 | 1018.7 | |
| 20260506214020 | 61 | 0.0 | 0.0 | 0.00 | 0.00 | 0.00 | 54 | 1018.7 | |
| 20260506213037 | 61 | 0.0 | 0.0 | 0.00 | 0.00 | 0.00 | 53 | 1018.6 | |
| 20260506212016 | 61 | 153 | 1.0 | 2.0 | 0.00 | 0.00 | 0.00 | 52 | 1018.6 |
| 20260506211043 | 61 | 163 | 1.0 | 2.0 | 0.00 | 0.00 | 0.00 | 54 | 1018.7 |
| 20260506210018 | 61 | 204 | 1.0 | 2.0 | 0.00 | 0.00 | 0.00 | 56 | 1018.6 |
| 20260506205022 | 61 | 0.0 | 0.0 | 0.00 | 0.00 | 0.00 | 56 | 1018.6 | |
| 20260506204039 | 62 | 0.0 | 0.0 | 0.00 | 0.00 | 0.00 | 54 | 1018.5 | |
| 20260506203025 | 62 | 216 | 1.0 | 2.0 | 0.00 | 0.00 | 0.00 | 54 | 1018.5 |
| 20260506202019 | 63 | 220 | 0.0 | 1.0 | 0.00 | 0.00 | 0.00 | 54 | 1018.5 |
| 20260506201018 | 63 | 221 | 1.0 | 1.0 | 0.00 | 0.00 | 0.00 | 54 | 1018.4 |
| 20260506200021 | 63 | 224 | 0.0 | 1.0 | 0.00 | 0.00 | 0.00 | 56 | 1018.5 |
| 20260506195020 | 63 | 0.0 | 0.0 | 0.00 | 0.00 | 0.00 | 60 | 1018.3 | |
| 20260506194018 | 63 | 0.0 | 0.0 | 0.00 | 0.00 | 0.00 | 58 | 1018.3 | |
| 20260506193016 | 64 | 221 | 0.0 | 1.0 | 0.00 | 0.00 | 0.00 | 58 | 1018.1 |
| 20260506192024 | 64 | 196 | 0.0 | 1.0 | 0.00 | 0.00 | 0.00 | 57 | 1018.0 |
| 20260506191019 | 64 | 195 | 0.0 | 1.0 | 0.00 | 0.00 | 0.00 | 55 | 1017.9 |
| 20260506190019 | 65 | 200 | 1.0 | 2.0 | 0.00 | 0.00 | 0.00 | 54 | 1017.8 |
| 20260506185041 | 65 | 0.0 | 0.0 | 0.00 | 0.00 | 0.00 | 55 | 1017.6 | |
| 20260506184017 | 66 | 0.0 | 0.0 | 0.00 | 0.00 | 0.00 | 54 | 1017.6 | |
| 20260506183104 | 66 | 0.0 | 0.0 | 0.00 | 0.00 | 0.00 | 53 | 1017.3 | |
| 20260506182020 | 66 | 0.0 | 0.0 | 0.00 | 0.00 | 0.00 | 50 | 1017.2 | |
| 20260506181017 | 66 | 0.0 | 0.0 | 0.00 | 0.00 | 0.00 | 49 | 1017.2 | |
| 20260506180025 | 67 | 0.0 | 0.0 | 0.00 | 0.00 | 0.00 | 50 | 1017.1 | |
| 20260506175025 | 67 | 0.0 | 0.0 | 0.00 | 0.00 | 0.00 | 49 | 1017.0 | |
| 20260506174024 | 68 | 0.0 | 0.0 | 0.00 | 0.00 | 0.00 | 49 | 1016.9 | |
| 20260506173020 | 68 | 0.0 | 0.0 | 0.00 | 0.00 | 0.00 | 48 | 1016.9 | |
| 20260506172039 | 69 | 0.0 | 0.0 | 0.00 | 0.00 | 0.00 | 47 | 1016.9 | |
| 20260506171017 | 69 | 324 | 0.0 | 1.0 | 0.00 | 0.00 | 0.00 | 46 | 1016.8 |
| 20260506170022 | 70 | 324 | 0.0 | 1.0 | 0.00 | 0.00 | 0.00 | 45 | 1016.7 |
| 20260506165016 | 71 | 324 | 1.0 | 1.0 | 0.00 | 0.00 | 0.00 | 43 | 1016.6 |
| 20260506164022 | 71 | 327 | 1.0 | 2.0 | 0.00 | 0.00 | 0.00 | 44 | 1016.6 |
| 20260506163019 | 71 | 353 | 1.0 | 2.0 | 0.00 | 0.00 | 0.00 | 45 | 1016.6 |
| 20260506162021 | 72 | 11 | 1.0 | 3.0 | 0.00 | 0.00 | 0.00 | 44 | 1016.6 |
| 20260506161018 | 73 | 11 | 2.0 | 3.0 | 0.00 | 0.00 | 0.00 | 40 | 1016.5 |
| 20260506160024 | 73 | 15 | 2.0 | 4.0 | 0.00 | 0.00 | 0.00 | 40 | 1016.5 |
| 20260506155043 | 73 | 9 | 1.0 | 3.0 | 0.00 | 0.00 | 0.00 | 38 | 1016.5 |
| 20260506154020 | 74 | 34 | 1.0 | 3.0 | 0.00 | 0.00 | 0.00 | 39 | 1016.5 |
| 20260506153018 | 74 | 93 | 1.0 | 2.0 | 0.00 | 0.00 | 0.00 | 36 | 1016.6 |
| 20260506152023 | 74 | 126 | 2.0 | 4.0 | 0.00 | 0.00 | 0.00 | 36 | 1016.6 |
| 20260506151018 | 73 | 329 | 1.0 | 2.0 | 0.00 | 0.00 | 0.00 | 39 | 1016.6 |
| 20260506150017 | 73 | 11 | 2.0 | 3.0 | 0.00 | 0.00 | 0.00 | 39 | 1016.6 |
| 20260506145021 | 73 | 1 | 1.0 | 3.0 | 0.00 | 0.00 | 0.00 | 39 | 1016.7 |
| 20260506144017 | 74 | 16 | 1.0 | 4.0 | 0.00 | 0.00 | 0.00 | 37 | 1016.7 |
| 20260506143016 | 75 | 36 | 2.0 | 4.0 | 0.00 | 0.00 | 0.00 | 35 | 1016.5 |
| 20260506142023 | 75 | 117 | 2.0 | 4.0 | 0.00 | 0.00 | 0.00 | 34 | 1016.5 |
| 20260506141019 | 74 | 58 | 2.0 | 3.0 | 0.00 | 0.00 | 0.00 | 35 | 1016.6 |
| 20260506140025 | 74 | 51 | 2.0 | 4.0 | 0.00 | 0.00 | 0.00 | 36 | 1016.7 |
| 20260506135022 | 73 | 20 | 3.0 | 4.0 | 0.00 | 0.00 | 0.00 | 36 | 1016.7 |
| 20260506134019 | 74 | 28 | 3.0 | 6.0 | 0.00 | 0.00 | 0.00 | 40 | 1016.8 |
| 20260506133025 | 74 | 49 | 2.0 | 4.0 | 0.00 | 0.00 | 0.00 | 36 | 1016.8 |
| 20260506132023 | 74 | 29 | 3.0 | 6.0 | 0.00 | 0.00 | 0.00 | 35 | 1016.7 |
| 20260506131018 | 76 | 29 | 3.0 | 7.0 | 0.00 | 0.00 | 0.00 | 34 | 1016.7 |